DateTimeUTC,F1_A11,F1_S11,BsB_S11,BsG_S11,BsR_S11,BbsB_S11,BbsG_S11,BbsR_S11,BaB_A11,BaG_A11,BaR_A11,T_S11,U_S11,P_S11,T1_A11
2020-08-11T00:00:00Z,00000380,20000600,,,,,,,,,,24.2,06.0,0665.6,30.9
2020-08-11T00:01:00Z,00000380,20000600,,,,,,,,,,24.2,05.9,0665.6,30.9
2020-08-11T00:02:00Z,00000380,20000600,,,,,,,,,,24.2,05.9,0665.6,30.9
2020-08-11T00:03:00Z,00000380,60000600,,,,,,,,,,24.2,05.9,0665.6,30.9
2020-08-11T00:04:00Z,00000380,40000600,0000.37,0000.03,-000.11,0000.36,-000.21,0000.03,0000.06,0000.10,0000.14,24.0,06.1,0666.4,30.9
2020-08-11T00:05:00Z,00000380,00000600,-000.69,0000.01,-000.25,0000.29,-000.20,0000.00,-000.01,-000.01,-000.12,24.0,06.1,0666.6,30.9
2020-08-11T00:06:00Z,00000380,00000600,-000.58,0000.41,0000.04,0000.62,0000.03,-000.02,-000.01,0000.07,0000.12,24.0,06.3,0666.7,30.9
2020-08-11T00:07:00Z,00000380,00000600,-001.02,-000.00,0000.33,0001.15,0000.27,0000.19,0000.09,0000.10,0000.05,24.1,06.3,0666.7,31.0
2020-08-11T00:08:00Z,00000380,00000600,-000.26,0000.33,0000.06,0000.16,0000.27,-000.14,-000.03,0000.00,-000.13,24.1,06.2,0666.7,31.0
2020-08-11T00:09:00Z,00000380,00000600,-000.53,-000.03,0000.07,0000.59,0000.09,-000.02,0000.14,-000.13,0000.12,24.1,06.3,0666.7,31.0
2020-08-11T00:10:00Z,00000380,00000600,-000.61,0000.31,0000.94,0000.52,0000.08,0000.22,-000.04,0000.08,-000.20,24.1,06.3,0666.6,30.9
2020-08-11T00:11:00Z,00000380,00000600,0000.67,0000.54,0000.21,0000.55,0000.37,0000.29,-000.10,-000.05,0000.13,24.0,06.3,0666.6,30.9
2020-08-11T00:12:00Z,00000380,00000600,-000.72,0000.33,0000.22,0001.05,0000.17,0000.08,0000.15,-000.01,-000.07,24.0,06.2,0666.6,30.9
2020-08-11T00:13:00Z,00000380,00000600,-000.10,0000.21,-000.21,0000.77,-000.05,0000.10,-000.05,-000.05,0000.07,24.0,06.3,0666.7,30.9
2020-08-11T00:14:00Z,00000380,00000600,-001.89,-000.38,0000.40,0000.52,-000.45,-000.30,0000.03,0000.13,-000.16,24.0,06.3,0666.7,30.9
2020-08-11T00:15:00Z,00000380,00000600,0000.08,0000.21,0000.40,0000.89,0000.31,0000.38,-000.09,-000.11,0000.08,23.9,06.4,0666.7,30.9
2020-08-11T00:16:00Z,00000380,00000600,-000.83,0000.49,0000.40,0000.60,0000.47,-000.06,0000.05,0000.04,0000.03,23.9,06.3,0666.8,30.9
2020-08-11T00:17:00Z,00000380,00000600,0000.29,0000.42,0000.07,0000.55,0000.10,0000.27,0000.04,-000.08,-000.03,23.9,06.3,0666.7,30.9
2020-08-11T00:18:00Z,00000380,00000600,0000.30,-000.29,0000.43,-000.05,0000.41,-000.12,0000.11,0000.04,-000.04,23.9,06.3,0666.7,30.9
2020-08-11T00:19:00Z,00000380,00000600,0001.14,0000.08,-000.02,0000.13,0000.09,0000.05,-000.06,-000.07,-000.03,23.9,06.4,0666.7,30.9
2020-08-11T00:20:00Z,00000380,00000600,-000.92,0000.27,0000.49,0000.36,-000.19,0000.10,0000.00,0000.10,0000.18,23.9,06.3,0666.8,30.9
2020-08-11T00:21:00Z,00000380,00000600,-001.07,0000.54,0000.08,0000.88,-000.08,-000.11,-000.04,0000.09,0000.02,23.9,06.4,0666.8,30.9
2020-08-11T00:22:00Z,00000380,00000600,-001.24,0000.45,-000.17,0001.33,-000.24,-000.10,0000.18,0000.03,0000.08,24.0,06.4,0666.9,31.0
2020-08-11T00:23:00Z,00000380,00000600,-000.04,0000.13,-000.06,0000.92,-000.09,0000.07,-000.01,0000.09,-000.09,24.0,06.3,0666.9,31.0
2020-08-11T00:24:00Z,00000380,00000600,-000.56,0000.05,0000.16,0000.55,0000.03,0000.26,-000.01,0000.05,0000.02,24.1,06.4,0666.8,31.0
2020-08-11T00:25:00Z,00000380,00000600,0000.33,0000.23,0000.25,0001.00,0000.32,-000.34,-000.10,-000.11,-000.03,24.1,06.3,0666.8,31.0
2020-08-11T00:26:00Z,00000380,00000600,-000.54,0000.03,-000.03,0000.76,0000.13,-000.35,0000.05,0000.00,0000.09,24.1,06.3,0666.8,31.0
2020-08-11T00:27:00Z,00000380,00000600,0001.86,0000.86,0000.14,-000.28,0000.27,-000.18,0000.07,0000.02,-000.06,24.1,06.3,0666.8,31.0
2020-08-11T00:28:00Z,00000380,00000600,-000.43,-000.35,-000.00,0000.70,-000.14,0000.18,-000.10,-000.02,-000.01,24.0,06.3,0666.8,30.9
2020-08-11T00:29:00Z,00000380,00000600,-000.38,-000.13,-000.11,0000.30,0000.26,0000.10,0000.01,-000.12,-000.15,24.0,06.4,0666.8,30.9
2020-08-11T00:30:00Z,00000380,00000600,-000.10,-000.23,0000.37,0000.60,-000.05,-000.36,-000.04,-000.03,-000.01,24.0,06.3,0666.9,30.9
2020-08-11T00:31:00Z,00000380,00000600,-000.52,0000.57,0000.59,0000.95,0000.30,-000.02,0000.05,0000.07,-000.03,24.0,06.3,0666.8,30.9
2020-08-11T00:32:00Z,00000380,00000600,0000.36,-000.20,0000.11,0000.86,0000.15,-000.17,0000.09,-000.02,-000.02,23.9,06.4,0666.8,30.9
2020-08-11T00:33:00Z,00000380,00000600,-001.30,0000.04,-000.24,0001.00,-000.03,0000.05,-000.09,-000.06,0000.19,23.9,06.3,0666.8,30.9
2020-08-11T00:34:00Z,00000380,00000600,0000.11,0000.46,0000.15,0000.13,0000.40,-000.41,0000.03,0000.13,-000.10,23.9,06.4,0666.8,30.9
2020-08-11T00:35:00Z,00000380,00000600,-000.55,-000.05,-000.01,-000.27,0000.05,0000.17,-000.00,0000.00,0000.00,23.9,06.4,0666.7,30.9
2020-08-11T00:36:00Z,00000380,00000600,-000.53,0000.22,0000.06,-000.05,0000.12,-000.13,0000.07,0000.08,0000.15,24.0,06.4,0666.9,30.9
2020-08-11T00:37:00Z,00000380,00000600,-000.27,0000.11,-000.08,0000.04,0000.15,-000.19,0000.03,-000.12,-000.03,24.0,06.3,0666.8,30.9
2020-08-11T00:38:00Z,00000380,00000600,-000.75,0000.25,0000.77,0000.90,0000.42,0000.47,-000.02,0000.22,-000.03,24.0,06.3,0667.0,30.9
2020-08-11T00:39:00Z,00000380,00000600,-000.01,0000.27,0000.42,0000.83,0000.36,0000.05,-000.04,0000.02,-000.02,24.0,06.4,0667.0,30.9
2020-08-11T00:40:00Z,00000380,00000600,-000.69,-000.06,0000.24,0001.10,0000.06,0000.26,-000.01,-000.24,-000.06,24.0,06.3,0666.8,30.9
2020-08-11T00:41:00Z,00000380,00000600,-001.69,0000.37,0000.25,0001.15,0000.18,-000.21,0000.03,0000.02,0000.08,24.0,06.3,0667.0,30.9
2020-08-11T00:42:00Z,00000380,00000600,0000.01,0000.27,0000.06,0000.83,0000.24,-000.19,-000.12,0000.14,0000.02,24.0,06.3,0666.9,30.9
2020-08-11T00:43:00Z,00000380,00000600,0000.25,0000.44,0000.20,0000.56,0000.18,-000.37,0000.17,-000.04,-000.03,23.9,06.3,0666.9,30.9
2020-08-11T00:44:00Z,00000380,00000600,-000.28,0000.27,-000.10,0000.58,0000.05,-000.38,0000.12,-000.12,0000.03,23.9,06.3,0666.8,30.9
2020-08-11T00:45:00Z,00000380,00000600,-000.69,-000.33,-000.00,0000.76,-000.23,-000.05,-000.23,-000.01,-000.03,23.9,06.3,0666.8,30.9
2020-08-11T00:46:00Z,00000380,00000600,-000.37,0000.02,0000.17,0001.31,0000.48,-000.14,-000.01,0000.12,-000.04,23.9,06.3,0666.8,30.9
2020-08-11T00:47:00Z,00000380,00000600,-000.15,0000.07,0000.47,0000.50,-000.04,0000.52,0000.05,-000.11,-000.02,23.8,06.3,0666.8,30.9
2020-08-11T00:48:00Z,00000380,00000600,0001.32,0000.62,0000.96,0000.85,0000.08,0000.29,0000.06,-000.08,-000.03,23.8,06.3,0666.8,30.9
2020-08-11T00:49:00Z,00000380,00000600,0000.34,0000.17,0000.20,0000.70,0000.07,-000.07,-000.04,-000.06,0000.19,23.8,06.4,0666.7,30.9
2020-08-11T00:50:00Z,00000380,00000600,0000.17,-000.06,-000.30,0001.33,0000.14,-000.15,0000.07,0000.27,-000.14,23.8,06.4,0666.8,30.9
2020-08-11T00:51:00Z,00000380,00000600,-000.63,0000.26,-000.03,0000.85,0000.26,0000.51,0000.02,0000.04,0000.06,23.9,06.4,0666.7,30.9
2020-08-11T00:52:00Z,00000380,00000600,-001.67,0000.13,0000.30,0000.57,0000.33,0000.21,-000.03,-000.14,0000.03,24.0,06.3,0666.9,30.9
2020-08-11T00:53:00Z,00000380,00000600,-000.13,0000.06,0000.44,-000.15,0000.23,0000.32,0000.07,0000.13,0000.02,24.0,06.3,0666.9,31.0
2020-08-11T00:54:00Z,00000380,00000600,0000.06,0000.24,0000.50,0000.48,0000.25,0000.14,0000.05,0000.01,-000.07,24.1,06.3,0666.9,31.0
2020-08-11T00:55:00Z,00000380,00000600,-000.47,0000.44,0000.17,0001.24,-000.01,-000.13,-000.01,0000.07,0000.01,24.0,06.3,0667.0,31.0
2020-08-11T00:56:00Z,00000380,00000600,0001.16,-000.03,0000.23,0000.68,0000.02,-000.09,-000.08,-000.08,0000.09,24.0,06.4,0666.9,30.9
2020-08-11T00:57:00Z,00000380,40000600,,,,,,,,,,24.0,06.7,0667.0,30.9
2020-08-11T00:58:00Z,00000380,60000600,,,,,,,,,,24.1,06.2,0665.7,31.0
2020-08-11T00:59:00Z,00000380,20000600,,,,,,,,,,24.2,06.1,0665.6,30.9
2020-08-11T01:00:00Z,00000380,20000600,,,,,,,,,,24.2,06.1,0665.6,30.9
2020-08-11T01:01:00Z,00000380,20000600,,,,,,,,,,24.2,06.1,0665.6,30.9
2020-08-11T01:02:00Z,00000380,20000600,,,,,,,,,,24.2,06.0,0665.7,30.9
2020-08-11T01:03:00Z,00000380,60000600,,,,,,,,,,24.2,05.9,0665.7,30.9
2020-08-11T01:04:00Z,00000380,40000600,-000.13,0000.33,-000.10,-000.40,-000.19,-000.18,0000.03,0000.02,0000.05,24.0,06.1,0666.7,30.9
2020-08-11T01:05:00Z,00000380,00000600,-001.16,0000.15,0000.08,0000.32,0000.08,-000.07,0000.14,-000.05,0000.10,23.9,06.2,0666.9,30.9
2020-08-11T01:06:00Z,00000380,00000600,-000.03,0000.46,0000.26,0000.97,0000.08,-000.19,-000.01,0000.22,0000.00,23.9,06.3,0667.0,30.9
2020-08-11T01:07:00Z,00000380,00000600,0000.44,0000.25,0000.35,-000.21,-000.43,0000.02,-000.06,0000.05,0000.15,24.0,06.2,0667.0,31.0
2020-08-11T01:08:00Z,00000380,00000600,0000.21,-000.14,0000.23,0000.36,-000.39,-000.20,-000.02,-000.00,-000.11,24.0,06.2,0667.1,31.0
2020-08-11T01:09:00Z,00000380,00000600,-001.23,0000.21,-000.19,0000.18,-000.02,-000.00,0000.08,-000.07,-000.04,24.1,06.2,0666.9,31.0
2020-08-11T01:10:00Z,00000380,00000600,-000.02,0000.65,-000.20,0000.27,0000.33,-000.44,-000.07,-000.18,0000.19,24.1,06.1,0667.0,30.9
2020-08-11T01:11:00Z,00000380,00000600,-001.01,0000.52,0000.34,0000.36,0000.11,-000.11,-000.01,0000.08,-000.15,24.0,06.1,0667.0,30.9
2020-08-11T01:12:00Z,00000380,00000600,-000.45,0000.16,0000.05,-000.16,-000.40,-000.08,0000.02,-000.00,-000.06,24.0,06.1,0667.1,30.9
2020-08-11T01:13:00Z,00000380,00000600,-000.47,-000.60,0000.02,-000.26,-000.09,-000.05,-000.06,-000.04,-000.11,24.0,06.2,0667.0,30.9
2020-08-11T01:14:00Z,00000380,00000600,-000.90,-000.52,-000.24,0000.34,0000.10,-000.27,-000.00,0000.08,0000.08,23.9,06.2,0666.9,30.9
2020-08-11T01:15:00Z,00000380,00000600,-000.81,-000.39,0000.02,0000.52,-000.36,-000.24,-000.06,-000.15,-000.09,23.9,06.2,0666.8,30.9
2020-08-11T01:16:00Z,00000380,00000600,-000.60,0000.35,-000.50,0000.09,-000.35,0000.09,0000.13,0000.14,0000.12,23.9,06.2,0666.9,30.9
2020-08-11T01:17:00Z,00000380,00000600,-000.42,-000.27,0000.27,0000.35,0000.10,0000.04,0000.06,-000.02,0000.02,23.9,06.2,0666.9,30.9
2020-08-11T01:18:00Z,00000380,00000600,-000.82,0000.34,0000.08,0000.38,0000.03,0000.37,-000.09,-000.04,0000.00,23.9,06.2,0666.8,30.9
2020-08-11T01:19:00Z,00000380,00000600,-000.71,0000.67,-000.46,0000.04,-000.19,-000.45,0000.03,-000.11,-000.01,23.9,06.1,0666.8,30.9
2020-08-11T01:20:00Z,00000380,00000600,-000.24,-000.25,0000.13,0000.07,0000.26,-000.24,0000.09,0000.24,0000.08,23.9,06.2,0666.9,30.9
2020-08-11T01:21:00Z,00000380,00000600,0000.90,-000.44,0000.43,0000.68,-000.14,-000.23,0000.02,-000.08,0000.03,23.9,06.2,0667.0,30.9
2020-08-11T01:22:00Z,00000380,00000600,-000.98,-000.49,0000.19,0000.77,-000.40,0000.08,-000.07,-000.01,-000.10,24.0,06.2,0666.9,31.0
2020-08-11T01:23:00Z,00000380,00000600,0000.88,0000.38,-000.47,0000.35,-000.14,-000.45,0000.19,0000.18,0000.05,24.0,06.1,0666.9,31.0
2020-08-11T01:24:00Z,00000380,00000600,-000.46,0000.29,0000.36,0000.22,-000.14,0000.07,-000.11,-000.12,0000.11,24.0,06.1,0666.9,31.0
2020-08-11T01:25:00Z,00000380,00000600,-000.74,0000.12,0000.03,-000.32,-000.03,0000.10,0000.06,-000.06,-000.15,24.0,06.1,0666.9,30.9
2020-08-11T01:26:00Z,00000380,00000600,-000.54,0000.31,0000.19,-000.58,0000.01,0000.12,-000.05,0000.02,0000.03,24.0,06.1,0666.9,31.0
2020-08-11T01:27:00Z,00000380,00000600,-000.30,0000.09,-000.11,-000.04,0000.45,0000.22,-000.06,0000.09,0000.04,23.9,06.1,0666.9,30.9
2020-08-11T01:28:00Z,00000380,00000600,-000.58,0000.72,0000.34,-000.01,0000.05,0000.13,0000.02,-000.11,-000.09,23.9,06.1,0666.9,30.9
2020-08-11T01:29:00Z,00000380,00000600,0000.04,-000.02,-000.01,0000.14,-000.23,0000.21,-000.06,0000.00,-000.01,23.9,06.2,0666.9,30.9
2020-08-11T01:30:00Z,00000380,00000600,-000.37,0001.05,-000.47,-000.22,0000.17,-000.61,0000.05,0000.09,-000.07,23.9,06.2,0667.0,30.9
2020-08-11T01:31:00Z,00000380,00000600,0001.77,0000.38,-000.26,-000.84,0000.14,-000.20,0000.11,-000.03,0000.10,23.9,06.1,0666.9,30.9
2020-08-11T01:32:00Z,00000380,00000600,-000.96,-000.03,-000.23,0000.36,-000.07,-000.10,-000.05,-000.03,-000.05,23.8,06.1,0666.8,30.9
2020-08-11T01:33:00Z,00000380,00000600,-000.86,0000.30,0000.04,-000.03,-000.20,-000.32,-000.04,-000.13,0000.01,23.8,06.2,0666.8,30.9
2020-08-11T01:34:00Z,00000380,00000600,-000.41,-000.04,0000.00,0000.67,0000.12,-000.20,0000.03,0000.18,0000.09,23.8,06.2,0666.9,30.9
2020-08-11T01:35:00Z,00000380,00000600,0000.74,0000.36,0000.88,-000.05,0000.05,0000.01,0000.09,0000.15,-000.01,23.8,06.2,0667.0,30.9
2020-08-11T01:36:00Z,00000380,00000600,-000.88,0000.11,0000.14,0000.06,-000.08,0000.05,0000.05,-000.14,0000.07,23.9,06.3,0667.0,30.9
2020-08-11T01:37:00Z,00000380,00000600,-000.63,0000.25,-000.10,0000.39,-000.23,-000.28,-000.03,0000.07,-000.03,23.9,06.2,0667.0,31.0
2020-08-11T01:38:00Z,00000380,00000600,0000.08,0000.41,-000.07,-000.13,-000.06,0000.05,0000.10,0000.01,-000.00,24.0,06.2,0667.0,31.0
2020-08-11T01:39:00Z,00000380,00000600,-000.83,-000.03,0000.11,-000.23,-000.17,0000.08,-000.07,-000.01,0000.03,24.0,06.2,0667.0,31.0
2020-08-11T01:40:00Z,00000380,00000600,-000.98,0000.81,-000.23,-000.53,0000.22,0000.44,0000.01,-000.03,-000.08,24.0,06.2,0667.0,31.0
2020-08-11T01:41:00Z,00000380,00000600,-000.53,-000.03,-000.27,0000.57,0000.29,0000.13,-000.08,-000.01,-000.03,24.0,06.1,0667.0,31.0
2020-08-11T01:42:00Z,00000380,00000600,-001.43,-000.36,0000.01,0000.24,0000.06,-000.09,-000.00,-000.07,0000.08,24.0,06.1,0667.0,31.0
2020-08-11T01:43:00Z,00000380,00000600,0000.23,0000.25,0000.18,0000.43,0000.32,0000.14,-000.00,-000.10,-000.10,23.9,06.1,0667.0,30.9
2020-08-11T01:44:00Z,00000380,00000600,-000.07,0000.23,0000.12,0000.45,0000.14,0000.36,0000.16,0000.16,0000.05,23.9,06.1,0666.9,30.9
2020-08-11T01:45:00Z,00000380,00000600,0000.10,-000.22,0000.18,0000.75,-000.20,-000.31,-000.20,-000.11,-000.03,23.9,06.2,0667.0,30.9
2020-08-11T01:46:00Z,00000380,00000600,-000.74,0000.37,-000.11,0000.43,-000.17,-000.29,0000.08,-000.08,-000.03,23.9,06.2,0666.9,30.9
2020-08-11T01:47:00Z,00000380,00000600,0000.10,0000.22,-000.01,0000.60,0000.11,0000.11,-000.01,0000.26,-000.05,23.8,06.2,0667.0,30.9
2020-08-11T01:48:00Z,00000380,00000600,-000.25,0000.49,0000.27,0000.09,-000.19,-000.07,0000.01,-000.14,0000.05,23.8,06.2,0666.9,30.9
2020-08-11T01:49:00Z,00000380,00000600,-000.80,-000.07,0000.05,0000.57,-000.13,-000.04,0000.11,-000.03,0000.13,23.8,06.2,0667.1,30.9
2020-08-11T01:50:00Z,00000380,00000600,0000.21,0000.05,-000.21,0000.26,0000.04,-000.06,-000.16,0000.01,0000.01,23.8,06.2,0667.2,30.9
2020-08-11T01:51:00Z,00000380,00000600,-000.86,-000.36,-000.23,-000.23,-000.10,-000.13,0000.11,0000.14,0000.01,23.9,06.2,0667.1,30.9
2020-08-11T01:52:00Z,00000380,00000600,-000.34,0000.23,0000.51,-000.02,0000.07,0000.09,-000.03,0000.00,0000.05,23.9,06.2,0667.1,31.0
2020-08-11T01:53:00Z,00000380,00000600,-000.16,0000.38,-000.04,0001.46,-000.27,-000.27,0000.17,-000.08,-000.02,24.0,06.1,0667.2,30.9
2020-08-11T01:54:00Z,00000380,00000600,-001.08,-000.22,-000.19,0000.15,0000.22,-000.17,-000.09,-000.08,-000.01,24.0,06.2,0667.1,30.9
2020-08-11T01:55:00Z,00000380,00000600,-000.41,0000.42,0000.11,0001.09,0000.34,-000.34,-000.01,0000.13,-000.03,23.9,06.1,0667.2,30.9
2020-08-11T01:56:00Z,00000380,00000600,-000.94,0000.38,0000.27,0000.04,0000.10,0000.02,-000.03,-000.22,-000.11,23.9,06.1,0667.2,30.9
2020-08-11T01:57:00Z,00000380,40000600,,,,,,,,,,24.0,05.7,0667.3,30.9
2020-08-11T01:58:00Z,00000380,60000600,,,,,,,,,,24.0,06.1,0666.1,30.9
2020-08-11T01:59:00Z,00000380,20000600,,,,,,,,,,24.1,05.9,0666.0,30.9
2020-08-11T02:00:00Z,00000380,20000600,,,,,,,,,,24.1,05.9,0666.0,30.9
2020-08-11T02:01:00Z,00000380,20000600,,,,,,,,,,24.1,05.9,0666.0,30.9
2020-08-11T02:02:00Z,00000380,20000600,,,,,,,,,,24.1,05.9,0666.0,30.9
2020-08-11T02:03:00Z,00000380,60000600,,,,,,,,,,24.1,05.9,0666.0,30.9
2020-08-11T02:04:00Z,00000380,40000600,-000.04,-000.05,0000.36,-000.08,0000.04,-000.04,0000.05,-000.16,-000.12,23.9,06.0,0667.0,30.9
2020-08-11T02:05:00Z,00000380,00000600,0000.47,0000.60,0000.37,0000.96,0000.04,0000.13,0000.08,0000.21,0000.09,23.9,06.1,0667.2,30.9
2020-08-11T02:06:00Z,00000380,00000600,0000.64,-000.49,0000.58,-000.04,0000.22,0000.20,-000.16,-000.03,-000.01,23.9,06.0,0667.1,30.9
2020-08-11T02:07:00Z,00000380,00000600,0000.38,0000.23,-000.11,0000.49,-000.03,-000.28,0000.02,0000.07,0000.09,23.9,06.1,0667.1,30.9
2020-08-11T02:08:00Z,00000380,00000600,0000.28,0000.51,0000.02,0000.53,0000.06,0000.15,-000.06,-000.17,-000.09,23.9,06.1,0667.1,30.9
2020-08-11T02:09:00Z,00000380,00000600,-000.41,0000.46,0000.35,0000.32,-000.13,0000.42,0000.05,0000.12,-000.04,23.9,06.1,0667.1,30.9
2020-08-11T02:10:00Z,00000380,00000600,0000.48,-000.19,0000.59,0000.67,-000.05,-000.01,-000.04,0000.04,0000.01,23.9,06.1,0667.0,30.9
2020-08-11T02:11:00Z,00000380,00000600,0000.65,0000.40,0000.36,0000.11,0000.27,0000.08,-000.06,-000.19,-000.14,23.9,06.1,0667.0,30.9
2020-08-11T02:12:00Z,00000380,00000600,0000.63,0000.22,-000.04,-000.16,0000.25,-000.02,0000.01,-000.03,0000.01,23.8,06.1,0667.1,30.9
2020-08-11T02:13:00Z,00000380,00000600,0000.79,0000.34,0000.32,0000.55,0000.05,0000.04,0000.08,0000.16,0000.06,23.8,06.1,0667.2,30.9
2020-08-11T02:14:00Z,00000380,00000600,0000.97,0000.20,-000.20,0000.42,0000.03,-000.19,-000.07,0000.12,-000.04,23.8,06.1,0667.1,30.9
2020-08-11T02:15:00Z,00000380,00000600,0000.33,-000.23,-000.13,-000.37,0000.40,0000.33,0000.01,-000.05,0000.12,23.8,06.1,0667.0,30.9
2020-08-11T02:16:00Z,00000380,00000600,0001.38,0000.19,-000.05,0000.52,0000.12,0000.28,-000.10,-000.11,-000.09,23.8,06.1,0667.1,30.9
2020-08-11T02:17:00Z,00000380,00000600,0000.22,0000.26,0000.26,0000.48,0000.43,-000.35,0000.14,-000.03,-000.03,23.7,06.1,0667.0,30.9
2020-08-11T02:18:00Z,00000380,00000600,0000.77,-000.08,0000.76,0000.57,-000.02,0000.20,-000.11,0000.04,0000.04,23.7,06.2,0667.2,30.9
2020-08-11T02:19:00Z,00000380,00000600,0000.04,-000.03,0001.21,-000.21,-000.27,-000.25,0000.09,0000.12,-000.02,23.7,06.1,0667.2,30.9
2020-08-11T02:20:00Z,00000380,00000600,0000.19,-000.15,0000.70,0000.26,0000.31,0000.04,0000.02,-000.13,0000.09,23.7,06.1,0667.0,30.9
2020-08-11T02:21:00Z,00000380,00000600,0000.07,0000.60,0000.16,0000.87,0000.64,-000.03,-000.06,0000.06,0000.03,23.8,06.2,0667.2,30.9
2020-08-11T02:22:00Z,00000380,00000600,0000.01,-000.44,-000.23,0000.86,0000.49,-000.16,0000.17,0000.07,0000.17,23.8,06.1,0667.1,30.9
2020-08-11T02:23:00Z,00000380,00000600,0001.02,-000.17,0000.39,0000.01,-000.33,0000.06,-000.02,0000.03,-000.07,23.9,06.2,0667.2,31.0
2020-08-11T02:24:00Z,00000380,00000600,0000.47,0000.25,0000.95,0000.04,0000.21,-000.11,-000.07,-000.08,-000.15,23.9,06.1,0667.3,31.0
2020-08-11T02:25:00Z,00000380,00000600,0000.12,0000.27,0000.42,-000.08,-000.04,-000.21,0000.04,0000.05,0000.02,23.8,06.1,0667.3,30.9
2020-08-11T02:26:00Z,00000380,00000600,-000.73,0000.43,0001.09,0000.21,0000.43,0000.15,-000.08,-000.19,-000.04,23.8,06.1,0667.3,30.9
2020-08-11T02:27:00Z,00000380,00000600,-000.69,0000.73,0000.52,-000.26,0000.25,-000.09,0000.06,0000.14,0000.01,23.8,06.1,0667.2,30.9
2020-08-11T02:28:00Z,00000380,00000600,-000.27,-000.17,-000.06,-000.26,-000.20,0000.28,-000.07,-000.01,-000.07,23.8,06.1,0667.3,30.9
2020-08-11T02:29:00Z,00000380,00000600,0000.76,0000.25,0000.28,0000.70,0000.28,-000.09,0000.09,-000.02,-000.03,23.8,06.1,0667.2,30.9
2020-08-11T02:30:00Z,00000380,00000600,0000.38,-000.23,-000.26,0000.66,0000.31,0000.05,-000.14,-000.05,0000.07,23.8,06.1,0667.2,30.9
2020-08-11T02:31:00Z,00000380,00000600,0000.73,0000.83,0000.04,0000.40,-000.16,-000.08,-000.02,0000.02,-000.17,23.7,06.1,0667.1,30.9
2020-08-11T02:32:00Z,00000380,00000600,-000.26,0000.13,0000.49,-000.06,0000.32,0000.42,0000.11,-000.04,0000.08,23.7,06.1,0667.1,30.9
2020-08-11T02:33:00Z,00000380,00000600,0000.02,0000.33,0000.14,0000.04,0000.55,0000.01,-000.02,0000.10,0000.06,23.7,06.1,0667.2,30.9
2020-08-11T02:34:00Z,00000380,00000600,0000.45,0000.22,0000.47,-000.03,0000.21,-000.15,-000.13,-000.13,0000.04,23.7,06.1,0667.2,30.9
2020-08-11T02:35:00Z,00000380,00000600,0000.41,0000.25,0000.14,0000.02,0000.46,0000.03,0000.26,0000.15,-000.03,23.7,06.1,0667.1,30.9
2020-08-11T02:36:00Z,00000380,00000600,0000.21,0000.46,0000.40,0000.61,0000.16,0000.42,0000.02,0000.16,0000.07,23.7,06.1,0667.3,30.9
2020-08-11T02:37:00Z,00000380,00000600,0001.02,0000.43,0000.28,0000.83,-000.29,-000.12,-000.10,-000.13,0000.00,23.8,06.1,0667.3,30.9
2020-08-11T02:38:00Z,00000380,00000600,-000.41,0000.21,0000.06,-000.32,0000.26,0000.27,-000.02,0000.17,0000.08,23.8,06.1,0667.3,31.0
2020-08-11T02:39:00Z,00000380,00000600,0000.11,0000.12,0000.52,0000.21,0000.27,0000.13,0000.02,-000.15,-000.04,23.9,06.1,0667.4,31.0
2020-08-11T02:40:00Z,00000380,00000600,0000.95,-000.12,-000.10,0000.31,0000.13,-000.19,0000.01,-000.03,-000.02,23.9,06.0,0667.4,31.0
2020-08-11T02:41:00Z,00000380,00000600,0000.90,0000.29,0000.01,0000.95,0000.03,0000.07,-000.15,-000.09,-000.05,23.9,06.0,0667.4,30.9
2020-08-11T02:42:00Z,00000380,00000600,0000.65,0000.15,-000.49,0000.38,-000.15,0000.07,-000.08,-000.12,-000.01,23.8,06.0,0667.5,30.9
2020-08-11T02:43:00Z,00000380,00000600,0001.04,0000.20,0000.17,0000.04,0000.45,-000.20,0000.10,0000.13,-000.04,23.8,05.9,0667.3,30.9
2020-08-11T02:44:00Z,00000380,00000600,0000.23,-000.19,-000.03,0000.30,0000.26,-000.15,-000.08,-000.20,0000.00,23.8,05.9,0667.3,30.9
2020-08-11T02:45:00Z,00000380,00000600,-000.19,0000.19,0000.38,0000.32,-000.03,0000.36,-000.00,0000.06,-000.12,23.8,05.9,0667.3,30.9
2020-08-11T02:46:00Z,00000380,00000600,0000.90,0000.14,0000.49,0000.29,0000.15,0000.04,-000.10,0000.04,-000.00,23.8,05.9,0667.2,30.9
2020-08-11T02:47:00Z,00000380,00000600,0000.41,0000.06,0000.19,0001.19,0000.09,0000.11,0000.02,0000.07,0000.09,23.8,05.9,0667.2,30.9
2020-08-11T02:48:00Z,00000380,00000600,0000.89,0000.03,-000.19,-000.59,0000.55,-000.33,-000.02,-000.22,-000.03,23.7,05.9,0667.3,30.9
2020-08-11T02:49:00Z,00000380,00000600,0000.33,0000.18,0000.13,0000.30,-000.14,-000.39,-000.06,0000.05,-000.01,23.8,05.9,0667.3,30.9
2020-08-11T02:50:00Z,00000380,00000600,0001.62,-000.38,-000.42,-000.49,0000.24,-000.28,0000.14,0000.23,0000.14,23.8,05.9,0667.4,30.9
2020-08-11T02:51:00Z,00000380,00000600,0000.41,-000.06,0000.33,0000.50,-000.44,-000.24,0000.00,-000.10,-000.13,23.8,05.9,0667.4,30.9
2020-08-11T02:52:00Z,00000380,00000600,0000.24,0000.33,0000.11,0000.10,0000.19,0000.12,-000.02,0000.14,0000.10,23.8,05.8,0667.4,31.0
2020-08-11T02:53:00Z,00000380,00000600,-000.67,0001.19,0000.20,-000.25,0000.22,0000.19,-000.07,-000.20,-000.13,23.9,05.8,0667.5,30.9
2020-08-11T02:54:00Z,00000380,00000600,0000.66,-000.20,0000.50,-000.03,-000.06,0000.12,0000.01,0000.05,0000.13,23.9,05.8,0667.4,30.9
2020-08-11T02:55:00Z,00000380,00000600,0001.16,0000.50,-000.02,0000.10,-000.03,0000.18,-000.12,-000.04,-000.16,23.9,05.8,0667.5,30.9
2020-08-11T02:56:00Z,00000380,00000600,0000.25,0000.24,0000.44,-000.38,0000.34,-000.01,-000.00,0000.04,0000.00,23.8,05.7,0667.4,30.9
2020-08-11T02:57:00Z,00000380,40000600,,,,,,,,,,23.8,05.5,0667.3,30.9
2020-08-11T02:58:00Z,00000380,60000600,,,,,,,,,,23.9,05.7,0666.3,30.9
2020-08-11T02:59:00Z,00000380,20000600,,,,,,,,,,24.0,05.7,0666.3,30.9
2020-08-11T03:00:00Z,00000380,20000600,,,,,,,,,,24.0,05.5,0666.3,30.9
2020-08-11T03:01:00Z,00000380,20000600,,,,,,,,,,24.0,05.5,0666.3,30.9
2020-08-11T03:02:00Z,00000380,20000600,,,,,,,,,,24.0,05.5,0666.3,30.9
2020-08-11T03:03:00Z,00000380,60000600,,,,,,,,,,24.0,05.5,0666.3,30.9
2020-08-11T03:04:00Z,00000380,40000600,0000.36,-000.11,0000.46,-000.15,-000.19,-000.07,-000.26,-000.07,0000.15,23.8,05.6,0667.2,30.9
2020-08-11T03:05:00Z,00000380,00000600,0000.29,0000.35,0000.19,0000.27,-000.27,0000.23,0000.14,0000.25,0000.01,23.8,05.6,0667.3,30.9
2020-08-11T03:06:00Z,00000380,00000600,0000.55,0000.20,0000.19,0000.01,-000.33,0000.34,-000.02,0000.08,-000.01,23.8,05.6,0667.4,30.9
2020-08-11T03:07:00Z,00000380,00000600,0000.92,-000.31,0000.20,-000.41,-000.13,0000.19,-000.03,-000.08,0000.04,23.9,05.6,0667.4,30.9
2020-08-11T03:08:00Z,00000380,00000600,0000.73,-000.13,0000.13,0001.14,0000.19,0000.34,-000.01,-000.08,0000.09,23.9,05.6,0667.4,30.9
2020-08-11T03:09:00Z,00000380,00000600,0000.31,-000.06,-000.13,0000.43,-000.77,0000.32,-000.06,0000.06,-000.18,23.9,05.6,0667.5,30.9
2020-08-11T03:10:00Z,00000380,00000600,0000.80,0000.32,0000.02,0000.01,0000.15,-000.11,-000.02,-000.09,0000.09,23.8,05.6,0667.4,30.9